Regional Weather Roundup
Issued by NWS Sioux Falls, SD

Home | Current Version | Previous Version | Graphics & Text | Print | Product List | Glossary On
Versions: 1 2 3 4 5 6 7 8 9 10 11 12 13 14 15 16 17 18 19 20 21 22 23 24 25 26 27 28 29 30 31 32 33 34 35 36 37 38 39 40 41 42 43 44 45 46 47 48 49 50
000
ASUS43 KFSD 211110
RWRFSD

WEATHER ROUNDUP FOR SE SOUTH DAKOTA/SW MINNESOTA/NW IOWA
NATIONAL WEATHER SERVICE SIOUX FALLS SD
600 AM CDT SAT APR 21 2018

NOTE: "FAIR" INDICATES FEW OR NO CLOUDS BELOW 12,000 FEET WITH NO
SIGNIFICANT WEATHER AND OR OBSTRUCTIONS TO VISIBILITY.


SDZ038>040-050-052>070-211200-
SOUTHEAST SOUTH DAKOTA

CITY           SKY/WX    TMP DP  RH WIND       PRES   REMARKS
BROOKINGS      CLOUDY    37  33  85 SE6       30.36F
CHAMBERLAIN    CLOUDY    41  41 100 NW3       30.31S
HURON          LGT RAIN  40  34  79 S7        30.34R
MADISON        CLOUDY    36  36 100 E3        30.35F
MITCHELL       CLOUDY    37  34  89 E8        30.34F
SIOUX FALLS    CLOUDY    38  30  73 NE9       30.34F
WINNER         CLOUDY    38  34  85 NE5       30.29S
YANKTON        CLOUDY    40  35  83 NE8       30.31F
$$

MNZ071-072-080-081-089-090-097-098-211200-
SOUTHWEST MINNESOTA

CITY           SKY/WX    TMP DP  RH WIND       PRES   REMARKS
FAIRMONT       CLOUDY    35  29  78 N3        30.40F
JACKSON        CLOUDY    36  30  80 E3        30.38F
LUVERNE        CLOUDY    37  30  75 NE5       30.36F
MARSHALL       CLOUDY    38  29  70 S9        30.39R
MONTEVIDEO     CLOUDY    34  30  86 CALM      30.40R
PIPESTONE      DRIZZLE  N/A N/A N/A S8        30.35F
REDWOOD FALLS  CLOUDY    34  29  82 SE8       30.40R WCI  27
TRACY          CLOUDY    40  31  69 S6        30.38S
WINDOM         DRIZZLE   37  19  48 CALM      30.38F
WORTHINGTON    CLOUDY    37  28  70 SE7       30.37F
$$

IAZ001>003-012>014-020>022-031-032-NEZ013-014-SDZ071-211200-
NORTHWEST IOWA

CITY           SKY/WX    TMP DP  RH WIND       PRES   REMARKS
CHEROKEE       CLOUDY    37  32  81 CALM      30.34F
DENISON        CLOUDY    43  36  75 NE10      30.33F
ESTHERVILLE    CLOUDY    35  28  75 NE5       30.38F
LE MARS        CLOUDY    41  32  70 NE9       30.33S
ORANGE CITY    CLOUDY    39  34  81 E9        30.33F
SHELDON        CLOUDY    39  32  75 E10       30.33F
SIOUX CITY     CLOUDY    42  33  70 E7        30.31S
SPENCER        CLOUDY    37  29  72 E7        30.37F
STORM LAKE     CLOUDY    37  32  81 NE7       30.34F
$$

ABBREVIATIONS USED IN REMARKS
   TC - TEMPERATURE IN CELSIUS
  WCI - WIND CHILL INDEX
   HX - HEAT INDEX
  VSB - VISIBILITY





USA.gov is the U.S. government's official web portal to all federal, state and local government web resources and services.